Location: Malvern Link
(52.1333°N, 2.3000°W)
Time: 07:36:49
(UTC+00:00)

Cosmos 1674 - Pass Details

Date: 18 September 2020
Orbit: 494 x 517 km, 82.5° (Epoch: 22 October)

Event Time Altitude Azimuth Distance (km) Brightness Sun altitude
Rises 19:01:36 0° 360° (N) 2,655 6.5 -7.8°
Reaches altitude 10° 19:04:13 10° 18° (NNE) 1,763 5.4 -8.1°
Maximum altitude 19:07:05 20° 66° (ENE) 1,264 4.2 -8.6°
Enters shadow 19:09:29 12° 109° (ESE) 1,626 4.5 -8.9°
